Regional Weather Roundup
Issued by NWS

Home | Current Version | Previous Version | Text Only | Print | Product List | Glossary On
Versions: 1 2 3 4 5 6 7 8 9 10 11 12 13 14 15 16 17 18 19 20 21 22 23 24 25 26 27 28 29 30 31 32 33 34 35 36 37 38 39 40 41 42 43 44 45 46 47 48 49 50
000
ASUS42 KKEY 271210
RWRKEY

FLORIDA REGIONAL WEATHER ROUNDUP FOR THE FLORIDA KEYS
NATIONAL WEATHER SERVICE KEY WEST FLORIDA
700 AM EST FRI FEB 27 2015

...SOUTH FLORIDA AND THE KEYS...

CITY           SKY/WX    TMP DP  RH WIND       PRES   REMARKS
FORT MYERS     CLOUDY    58  53  84 NE8       30.08S
SW REGIONAL AP CLOUDY    59  53  80 NE9       30.09R
NAPLES         CLOUDY    62  56  80 N7        30.08R
MIAMI          CLOUDY    68  62  81 NE3       30.05R
WEST KENDALL   CLOUDY    66  62  87 N6        30.05R
HOMESTEAD      CLOUDY    70  64  82 N6        30.04R
MARATHON       PTCLDY    72  70  93 NE9       30.04R
BOCA CHICA NAS CLOUDY    69  66  90 N14       30.05R
KEY WEST INTL  CLOUDY    69  67  93 N10       30.05R

...INTERNATIONAL WEATHER...

CITY           SKY/WX    TMP DP  RH WIND       PRES   REMARKS
NASSAU BAHAMAS LGT RAIN  73  73 100 CALM      30.07R
CANCUN MEXICO  PTCLDY    72  70  94 N6        29.98R
COZUMEL MEXICO MOCLDY    70  70 100 CALM      29.96R

ADJACENT COASTAL WATERS...

STATION/POSITION TIME  SKY/WX   TEMP    WIND        PRES    WAVE
                                AIR SEA DIR/SP/G            HT/PER
                 (UTC)          (F)     (DEG/KT/KT) (MB)    (FT/S)
PULASKI SHOAL LI 1100            65      30/ 19/ 22 1017.0R
SAND KEY         1150            69      20/ 17/ 19 1017.1R
SOMBRERO KEY     1200            71      60/ 12/ 13 1017.5R
LONG KEY         1100            71 75   40/ 13/ 14 1017.0R
MOLASSES REEF    1200            72 73   20/  9/ 10 1017.1R
FOWEY ROCKS      NOT AVBL
Buoy 42080       NOT AVBL

$$


USA.gov is the U.S. government's official web portal to all federal, state and local government web resources and services.